Station DELD1 - 8551762 - Delaware City, DE Image indicating link to RSS feed of recent meteorological observations for station DELD1


Conditions at DELD1 as of
(2:30 am EDT)
0630 GMT on 06/17/2024:
     

Click on the graph icon in the table below to see a time series plot of the last five days of that observation.

5-day plot - Wind Direction Wind Direction (WDIR): S ( 190 deg true )
5-day plot - Wind Speed Wind Speed (WSPD): 2.9 kts
5-day plot - Wind Gust Wind Gust (GST): 5.1 kts
5-day plot - Atmospheric Pressure Atmospheric Pressure (PRES):30.19 in
5-day plot - Air Temperature Air Temperature (ATMP): 67.6 °F
5-day plot - Wind Speed at 10 Meters Wind Speed at 10 meters (WSPD10M): 3.9 kts
5-day plot - Wind Speed at 20 Meters Wind Speed at 20 meters (WSPD20M): 3.9 kts
5-day plot -  Wind Speed, Wind Gust and Atmospheric Pressure Combined plot of Wind Speed, Gust, and Air Pressure
NOS Water Level Observation Network Water Level
Previous observations
TIME
(EDT)
5-day plot - Wind Direction
WDIR
 
5-day plot - Wind Speed
WSPD
kts
5-day plot - Wind Gust
GST
kts
5-day plot - Wave Height
WVHT
ft
5-day plot - Dominant Wave Period
DPD
sec
5-day plot - Average Wave Period
APD
sec
5-day plot - Mean Wave Direction
MWD
 
5-day plot - Atmospheric Pressure
PRES
in
5-day plot - Pressure Tendency
PTDY
in
5-day plot - Air Temperature
ATMP
°F
5-day plot - Water Temperature
WTMP
°F
5-day plot - Dew Point
DEWP
°F
5-day plot - Salinity
SAL
psu
5-day plot - Visibility
VIS
nmi
5-day plot - Tide (above MLLW)
TIDE
ft
2024-06-17 02:24 am S 2.9 5.1----30.19- 67.6-----
2024-06-17 02:18 am S 4.1 6.0----30.19- 67.8-----
2024-06-17 02:12 am S 4.1 5.1----30.19- 68.2-----
2024-06-17 02:06 am S 4.1 5.1----30.19- 68.2-----
2024-06-17 02:00 am S 4.1 5.1----30.19+0.00 68.2-----
2024-06-17 01:54 am S 2.9 5.1----30.19- 68.2-----
2024-06-17 01:48 am S 2.9 5.1----30.19- 68.5-----
2024-06-17 01:42 am S 2.9 5.1----30.19- 68.9-----
2024-06-17 01:36 am S 4.1 6.0----30.19- 69.1-----
2024-06-17 01:30 am S 5.1 6.0----30.19- 69.3-----
2024-06-17 01:24 am S 4.1 6.0----30.19- 69.4-----
2024-06-17 01:18 am S 4.1 8.0------ 69.6-----
2024-06-17 01:12 amSSW 4.1 7.0------ 69.4-----
2024-06-17 01:06 amSSW 4.1 6.0------ 69.4-----
2024-06-17 01:00 amSSW 4.1 6.0----30.19+0.01------
2024-06-17 12:54 amSSW 4.1 6.0----30.19-------
2024-06-17 12:48 am S 4.1 6.0----30.19-------
2024-06-17 12:42 am S 2.9 6.0----30.19-------
2024-06-17 12:36 amSSW 4.1 6.0----30.19-------
2024-06-17 12:30 am SW 4.1 7.0----30.19-------
2024-06-17 12:24 am SW 2.9 5.1----30.19-------
2024-06-17 12:18 am SW 2.9 6.0----30.19- 69.8-----
2024-06-17 12:12 am SW 2.9 6.0----30.19- 70.0-----
2024-06-17 12:06 am SW 1.9 5.1----30.19- 70.3-----
2024-06-17 12:00 am-------30.19+0.03 70.7-----
2024-06-16 11:54 pm-------30.19- 70.9-----
2024-06-16 11:48 pm S 2.9 5.1----30.19-------
2024-06-16 11:42 pmSSW 2.9 6.0----30.19-------
2024-06-16 11:36 pm S 2.9 5.1----30.19-------
2024-06-16 11:30 pm S 4.1 5.1----30.19- 71.8-----
2024-06-16 11:24 pm S 2.9 5.1----30.19- 72.1-----
2024-06-16 11:18 pmSSE 2.9 6.0----30.19- 72.3-----
2024-06-16 11:12 pm S 1.9 4.1----30.18- 72.3-----
2024-06-16 11:06 pm S 2.9 5.1----30.18- 72.5-----
2024-06-16 11:00 pm S 1.9 5.1----30.18+0.02 72.5-----
2024-06-16 10:54 pm S 2.9 6.0----30.18- 72.7-----
2024-06-16 10:48 pmSSE 4.1 6.0----30.18- 72.9-----
2024-06-16 10:42 pmSSE 2.9 6.0----30.18- 72.9-----
2024-06-16 10:36 pm S 2.9 5.1----30.18- 72.7-----
2024-06-16 10:30 pmSSE 4.1 6.0----30.18- 72.7-----
2024-06-16 10:24 pmSSE 5.1 6.0----30.18- 72.5-----
2024-06-16 10:18 pmSSE 5.1 7.0----30.18- 72.5-----
2024-06-16 10:12 pmSSE 5.1 7.0----30.18- 72.5-----
2024-06-16 10:06 pmSSE 5.1 6.0----30.18- 72.7-----
2024-06-16 10:00 pmSSE 4.1 6.0----30.18+0.02 72.7-----
2024-06-16 09:54 pmSSE 4.1 6.0----30.18- 72.7-----
2024-06-16 09:48 pm S 5.1 8.0----30.18- 72.5-----
2024-06-16 09:42 pmSSE 5.1 7.0----30.17- 72.7-----
2024-06-16 09:36 pm S 5.1 8.9----30.17- 72.7-----
2024-06-16 09:30 pmSSE 7.0 11.1------ 72.7-----
2024-06-16 09:24 pmSSE 6.0 9.9------ 72.7-----
2024-06-16 09:18 pmSSE 7.0 11.1------ 72.9-----
2024-06-16 09:12 pmSSE 8.0 11.1------ 72.7-----
2024-06-16 09:06 pmSSE 8.0 12.0------ 72.9-----
2024-06-16 09:00 pmSSE 8.0 9.9----30.16+0.00------
2024-06-16 08:54 pmSSE 8.9 12.0----30.16-------
2024-06-16 08:48 pmSSE 8.0 12.0----30.16-------
2024-06-16 08:42 pmSSE 8.0 14.0----30.16-------
2024-06-16 08:36 pmSSE 6.0 9.9----30.16-------
2024-06-16 08:30 pmSSE 7.0 12.0----30.16-------
2024-06-16 08:24 pmSSE 8.0 12.0----30.16-------
2024-06-16 08:18 pmSSE 8.9 12.0----30.16- 74.3-----
2024-06-16 08:12 pmSSE 8.9 11.1----30.16- 74.5-----
2024-06-16 08:06 pmSSE 8.0 13.0----30.16- 74.7-----
2024-06-16 08:00 pmSSE 8.0 12.0----30.16-0.01 74.7-----
2024-06-16 07:54 pmSSE 8.9 14.0----30.16- 75.0-----
2024-06-16 07:48 pmSSE 8.0 11.1----30.16- 75.2-----
2024-06-16 07:42 pmSSE 7.0 11.1----30.16- 75.4-----
2024-06-16 07:36 pmSSE 9.9 13.0----30.16- 75.7-----
2024-06-16 07:30 pmSSE 7.0 14.0----30.16- 76.1-----
2024-06-16 07:24 pmSSE 7.0 12.0----30.16- 76.6-----
2024-06-16 07:18 pmSSE 8.0 11.1----30.16- 77.0-----
2024-06-16 07:00 pmSSE 8.9 13.0----30.16-0.03------
2024-06-16 06:54 pmSSE 11.1 15.0----30.16-------
2024-06-16 06:48 pmSSE 8.0 12.0----30.16- 77.2-----
2024-06-16 06:42 pmSSE 8.9 12.0----30.16- 77.4-----
2024-06-16 06:36 pmSSE 7.0 13.0----30.16- 77.5-----
2024-06-16 06:30 pmSSE 6.0 12.0------ 77.7-----
2024-06-16 06:24 pmSSE 8.0 12.0------ 77.4-----
2024-06-16 06:18 pmSSE 8.9 13.0----30.16- 77.4-----
2024-06-16 06:12 pmSSE 8.9 14.0----30.16- 77.4-----
2024-06-16 06:06 pmSSE 9.9 14.0----30.16- 77.4-----
2024-06-16 06:00 pmSSE 8.9 14.0----30.16-0.03 77.4-----
2024-06-16 05:54 pmSSE 8.9 14.0----30.16- 77.2-----
2024-06-16 05:48 pmSSE 8.0 14.0----30.16-------
2024-06-16 05:42 pmSSE 8.0 14.0----30.16-------
2024-06-16 05:36 pmSSE 11.1 14.0----30.16-------
2024-06-16 05:30 pmSSE 7.0 11.1----30.16- 78.1-----
2024-06-16 05:24 pm S 8.9 13.0----30.17- 78.1-----
2024-06-16 05:18 pm S 8.0 13.0----30.17-------
2024-06-16 05:12 pm S 7.0 11.1----30.17-------
2024-06-16 05:06 pmSSE 5.1 7.0----30.17-------
2024-06-16 05:00 pm SE 6.0 7.0----30.17-0.04 79.9-----
2024-06-16 04:54 pmSSE 7.0 8.9----30.18- 79.9-----
2024-06-16 04:48 pm SE 6.0 7.0----30.18-------
2024-06-16 04:42 pmESE 5.1 6.0----30.18-------
2024-06-16 04:36 pm SE 5.1 7.0----30.18-------
2024-06-16 04:30 pm SE 6.0 7.0----30.18- 79.5-----
2024-06-16 04:24 pmESE 6.0 6.0----30.18- 79.2-----
2024-06-16 04:18 pmESE 5.1 5.1----30.18- 79.0-----
2024-06-16 04:12 pmESE 5.1 5.1----30.18- 79.0-----
2024-06-16 04:06 pmESE 4.1 5.1----30.19- 79.2-----
2024-06-16 04:00 pmESE 5.1 6.0----30.19-0.04 79.0-----
2024-06-16 03:54 pmESE 6.0 6.0----30.18- 78.8-----
2024-06-16 03:48 pm SE 6.0 6.0----30.18- 78.6-----
2024-06-16 03:42 pmESE 6.0 6.0----30.18- 78.6-----
2024-06-16 03:36 pmESE 5.1 6.0----30.18- 78.4-----
2024-06-16 03:30 pm SE 5.1 7.0----30.19-------
2024-06-16 03:24 pmESE 6.0 7.0----30.19-------
2024-06-16 03:18 pmESE 6.0 7.0----30.19- 78.4-----
2024-06-16 03:12 pmESE 6.0 6.0----30.19- 78.4-----
2024-06-16 03:06 pm SE 6.0 6.0----30.19- 78.6-----
2024-06-16 03:00 pmESE 6.0 7.0----30.19-0.03------
2024-06-16 02:54 pmESE 6.0 7.0----30.19-------
2024-06-16 02:48 pmESE 6.0 7.0----30.20-------
2024-06-16 02:42 pmESE 6.0 7.0----30.20-------
2024-06-16 02:36 pmESE 6.0 7.0----30.20-------
2024-06-16 02:30 pmESE 6.0 7.0----30.20- 78.3-----
2024-06-16 02:24 pmESE 6.0 7.0----30.20- 78.1-----
2024-06-16 02:18 pmESE 5.1 7.0----30.20- 77.9-----
2024-06-16 02:12 pmESE 5.1 7.0----30.20- 78.4-----
2024-06-16 02:06 pmESE 6.0 7.0----30.21- 77.7-----
2024-06-16 02:00 pmESE 6.0 6.0----30.21-0.02 77.7-----
2024-06-16 01:54 pmESE 6.0 8.0----30.21- 77.7-----
2024-06-16 01:48 pmESE 7.0 8.0----30.21- 77.7-----
2024-06-16 01:42 pm SE 7.0 8.0----30.21- 77.4-----
2024-06-16 01:36 pmESE 8.0 8.9----30.21- 77.0-----
2024-06-16 01:30 pmESE 6.0 7.0----30.21- 77.0-----
2024-06-16 01:24 pm E 5.1 6.0----30.21- 76.8-----
2024-06-16 01:18 pm E 5.1 5.1----30.22- 76.5-----
2024-06-16 01:12 pm E 4.1 5.1----30.22- 76.5-----
2024-06-16 01:06 pm E 4.1 5.1----30.22- 76.3-----
2024-06-16 01:00 pmENE 5.1 5.1----30.22+0.00 75.7-----
2024-06-16 12:54 pmENE 4.1 5.1----30.22- 75.7-----
2024-06-16 12:48 pmENE 2.9 4.1----30.22-------
2024-06-16 12:42 pm NE 1.9 2.9----30.22-------
2024-06-16 12:36 pm N 1.9 2.9----30.22-------
2024-06-16 12:30 pm N 1.9 2.9----30.23-------
2024-06-16 12:24 pm N 2.9 4.1----30.23-------
2024-06-16 12:18 pm N 2.9 4.1----30.23- 75.0-----
2024-06-16 12:12 pm N 4.1 4.1----30.23- 74.8-----
2024-06-16 12:06 pm N 2.9 4.1----30.23- 74.8-----
2024-06-16 12:00 pm N 2.9 4.1----30.23+0.00 74.8-----
2024-06-16 11:54 am N 2.9 4.1----30.23- 74.5-----
2024-06-16 11:48 am N 4.1 5.1----30.23-------
2024-06-16 11:42 amNNE 2.9 4.1----30.23-------
2024-06-16 11:36 amNNE 1.0 4.1----30.23-------
2024-06-16 11:30 am E 1.9 2.9----30.23- 74.8-----
2024-06-16 11:24 am E 2.9 4.1----30.23- 74.5-----
2024-06-16 11:18 am E 4.1 5.1----30.23-------
2024-06-16 11:12 amESE 2.9 5.1----30.23-------
2024-06-16 11:06 am E 2.9 4.1----30.23-------
2024-06-16 11:00 am NE 2.9 4.1----30.23+0.02 74.1-----
2024-06-16 10:54 am NE 2.9 7.0----30.23- 73.8-----
2024-06-16 10:48 am E 4.1 5.1----30.23-------
2024-06-16 10:42 am NE 2.9 6.0----30.23-------
2024-06-16 10:36 amENE 5.1 6.0----30.23-------
2024-06-16 10:30 am-------30.23-------
2024-06-16 10:24 am-------30.23-------
2024-06-16 10:18 amENE 4.1 5.1----30.22- 72.3-----
2024-06-16 10:12 am NE 1.9 4.1----30.22- 72.1-----
2024-06-16 10:06 am NE 4.1 6.0----30.22- 71.6-----
2024-06-16 10:00 amENE 2.9 4.1----30.22+0.02------
2024-06-16 09:54 am E 4.1 5.1----30.22-------
2024-06-16 09:48 am E 1.9 5.1----30.22- 71.4-----
2024-06-16 09:42 amENE 5.1 6.0----30.22- 70.9-----
2024-06-16 09:36 am E 6.0 8.0----30.22- 70.9-----
2024-06-16 09:30 am E 5.1 8.0----30.22- 70.3-----
2024-06-16 09:24 amENE 6.0 8.0----30.22- 70.5-----
2024-06-16 09:18 amENE 6.0 8.0----30.22-------
2024-06-16 09:12 am E 8.0 8.9----30.23-------
2024-06-16 09:06 am NE 5.1 8.0----30.22-------
2024-06-16 09:00 am E 6.0 7.0----30.22+0.04 69.6-----
2024-06-16 08:54 amENE 5.1 8.0----30.22- 69.1-----
2024-06-16 08:48 amENE 5.1 8.0----30.22- 69.1-----
2024-06-16 08:42 amENE 7.0 8.0----30.23- 68.9-----
2024-06-16 08:36 amENE 5.1 8.0----30.23- 68.9-----
2024-06-16 08:30 amENE 7.0 8.0----30.23- 68.7-----
2024-06-16 08:24 amENE 6.0 8.0----30.22- 68.9-----
2024-06-16 08:18 am-------30.22- 68.9-----
2024-06-16 08:12 am-------30.22- 68.5-----
2024-06-16 08:06 am-------30.22- 68.5-----
2024-06-16 08:00 amENE 6.0 8.9----30.22+0.05 68.5-----
2024-06-16 07:54 amENE 7.0 8.9----30.22- 68.7-----
2024-06-16 07:48 am NE 7.0 8.0----30.22- 68.5-----
2024-06-16 07:42 am NE 7.0 8.9----30.22- 68.4-----
2024-06-16 07:36 am NE 7.0 8.9----30.22- 68.7-----
2024-06-16 07:30 am NE 7.0 9.9----30.21- 68.7-----
2024-06-16 07:24 am NE 8.0 11.1----30.21- 68.5-----
2024-06-16 07:18 am NE 8.0 9.9----30.21-------
2024-06-16 07:12 am NE 9.9 12.0----30.21-------
2024-06-16 07:06 am NE 8.9 11.1----30.21-------
2024-06-16 07:00 am NE 8.9 12.0----30.20-------
2024-06-16 06:54 am NE 8.9 12.0----30.20-------
2024-06-16 06:48 am NE 8.9 11.1----30.20-------
2024-06-16 06:42 am NE 8.0 12.0----30.20-------
2024-06-16 06:36 am NE 8.9 13.0----30.19-------
2024-06-16 06:30 am NE 8.9 11.1----30.19-------
2024-06-16 06:24 am NE 8.0 9.9----30.19-------
2024-06-16 06:18 am NE 8.0 9.9----30.19- 68.5-----
2024-06-16 06:12 am NE 8.9 11.1----30.19- 68.5-----
2024-06-16 06:06 am NE 8.0 11.1----30.18- 68.5-----
2024-06-16 06:00 amNNE 8.9 11.1----30.18+0.04------
2024-06-16 05:54 amNNE 8.0 8.9----30.18-------
2024-06-16 05:48 amNNE 8.0 9.9----30.17- 68.5-----
2024-06-16 05:42 am NE 8.0 9.9----30.17- 68.5-----
2024-06-16 05:36 am NE 8.0 9.9----30.17- 68.5-----
2024-06-16 05:30 am NE 8.9 9.9----30.17- 68.9-----
2024-06-16 05:24 amNNE 8.9 11.1----30.17- 68.9-----
2024-06-16 05:18 amNNE 8.9 9.9----30.17-------
2024-06-16 05:12 amNNE 8.9 9.9----30.16-------
2024-06-16 05:06 amNNE 8.0 11.1----30.16-------
2024-06-16 05:00 amNNE 8.0 9.9----30.16+0.04------
2024-06-16 04:54 amNNE 8.0 8.9----30.16-------
2024-06-16 04:48 amNNE 8.0 8.9----30.16- 69.4-----
2024-06-16 04:42 amNNE 7.0 9.9----30.15- 69.4-----
2024-06-16 04:36 am N 1.9 4.1----30.15- 69.4-----
2024-06-16 04:30 am W 1.9 4.1----30.15- 69.4-----
2024-06-16 04:24 amWSW 1.0 4.1----30.15- 69.3-----
2024-06-16 04:18 amWSW 1.9 4.1----30.15- 69.3-----
2024-06-16 04:12 amWSW 1.9 4.1----30.15- 69.3-----
2024-06-16 04:06 amWSW 1.9 2.9----30.15- 69.1-----
2024-06-16 04:00 amSSW 1.0 2.9------ 69.1-----
2024-06-16 03:54 am W 1.0 2.9------ 69.4-----
2024-06-16 03:48 am W 1.0 4.1----30.15- 69.4-----
2024-06-16 03:42 amWNW 2.9 5.1----30.15- 69.6-----
2024-06-16 03:36 am NW 4.1 7.0----30.14- 69.8-----
2024-06-16 03:30 am NW 4.1 6.0----30.14- 70.2-----
2024-06-16 03:24 amWNW 1.9 5.1----30.14- 70.5-----
2024-06-16 03:18 am NW 5.1 7.0----30.14- 70.2-----
2024-06-16 03:12 amWNW 2.9 4.1----30.14- 70.7-----
2024-06-16 03:06 am W 1.9 1.9----30.14- 69.3-----
2024-06-16 03:00 am- 0.0 2.9----30.14+0.04 67.8-----
2024-06-16 02:54 am NW 2.9 5.1----30.14- 66.6-----